Hourly Weather Roundup
Issued by NWS Central Illinois

Home | Current Version | Previous Version | Text Only | Print | Product List | Glossary On
Versions: 1 2 3 4 5 6 7 8 9 10 11 12 13 14 15 16 17 18 19 20 21 22 23 24 25 26 27 28 29 30 31 32 33 34 35 36 37 38 39 40 41 42 43 44 45 46 47 48 49 50
000
NZUS43 KILX 180410
HWRILX

AREA WEATHER ROUNDUP
NATIONAL WEATHER SERVICE, LINCOLN IL
1100 PM CDT WED SEP 17 2014


CITY           SKY/WX    TMP DP  RH WIND       PRES   REMARKS
BLOOMINGTON    CLEAR     58  50  75 CALM      30.04R
CHAMPAIGN      MOCLDY    54  51  90 W6        30.04R
DECATUR        MOCLDY    54  52  93 CALM      30.03S
FLORA          CLEAR     60  55  82 NE5       30.01S
GALESBURG      CLEAR     49  47  93 CALM      30.02S
JACKSONVILLE   CLEAR     54  53  95 CALM      30.03R FOG
LACON          CLEAR     52  50  93 CALM      30.02S
LAWRENCEVILLE  CLOUDY    60  56  86 NE5       30.02R
LITCHFIELD     CLOUDY    58  55  91 CALM      30.01S
$$


CITY           SKY/WX    TMP DP  RH WIND       PRES   REMARKS
LINCOLN        MOCLDY    56  54  91 CALM      30.01S
MACOMB         CLEAR     49  48  98 CALM      30.04R
MATTOON        CLOUDY    57  53  86 CALM      30.02R
MT CARMEL AP   CLOUDY    63  55  77 NE6       30.01S
OLNEY-NOBLE AP CLOUDY    59  55  88 CALM      30.01S
PARIS          CLOUDY    53  53  99 CALM      30.04R
PEORIA         CLEAR     56  52  86 NE3       30.03R FOG
PONTIAC        CLEAR     52  52 100 CALM      30.03R
RANTOUL        CLEAR     56  50  80 CALM      30.04R
ROBINSON       FOG       53  52  99 CALM      30.03S VSB 1/2
SPRINGFIELD    CLEAR     53  50  89 NE3       30.02R
TAYLORVILLE    CLOUDY    55  54  94 CALM      30.02R
$$

...REGIONAL REPORTS...


CITY           SKY/WX    TMP DP  RH WIND       PRES   REMARKS
CHICAGO O`HARE CLEAR     61  48  62 CALM      30.03R
KANKAKEE       CLEAR     53  50  89 E3        30.04S
MOLINE         CLEAR     53  50  89 CALM      30.02S
MOUNT VERNON   CLOUDY    61  54  77 NE5       30.01R
PITTSFIELD     MOCLDY    56  54  92 CALM      30.03R FOG
QUINCY         CLEAR     57  55  93 E5        30.01R
ROCKFORD       CLEAR     51  49  92 CALM      30.06R
$$


CITY           SKY/WX    TMP DP  RH WIND       PRES   REMARKS
BURLINGTON     CLEAR     57  53  86 SE3       30.02R
CEDAR RAPIDS   CLEAR     54  53  97 SE3       30.02R
DES MOINES     CLEAR     65  57  75 SE7       30.00R
KIRKSVILLE     CLEAR     59  57  93 E6        30.01R FOG
OTTUMWA        CLEAR     57  53  86 E6        30.01R
ST LOUIS       CLOUDY    63  55  75 E3        30.01R
$$


CITY           SKY/WX    TMP DP  RH WIND       PRES   REMARKS
TERRE HAUTE    PTCLDY    52  50  93 NE3       30.03R FOG
EVANSVILLE     CLOUDY    63  55  75 NE5       30.01R
INDIANAPOLIS   CLEAR     54  50  86 W6        30.02S
LAFAYETTE      MOCLDY    52  51  97 CALM      30.03R
MADISON        CLEAR     52  49  89 CALM      30.03R
MILWAUKEE      CLEAR     57  47  69 CALM      30.03R
$$





USA.gov is the U.S. government's official web portal to all federal, state and local government web resources and services.